| time (UTC) | temp F | wind direction | speed MPH | gust MPH | rain 1hr in | rain 24hr in | rain mn in | humidity % | barometer mb |
| 20260905043103 | 64 | 0 | 0.0 | 2.0 | 0.00 | 0.00 | 0.00 | 88 | 1016.4 |
| 20260905041611 | 65 | 36 | 0.0 | 2.0 | 0.00 | 0.00 | 0.00 | 88 | 1016.4 |
| 20260905040111 | 65 | 44 | 0.0 | 3.0 | 0.00 | 0.00 | 0.00 | 87 | 1016.4 |
| 20260905034603 | 66 | 50 | 1.0 | 3.0 | 0.00 | 0.00 | 0.00 | 87 | 1016.3 |
| 20260905033109 | 66 | 40 | 1.0 | 4.0 | 0.00 | 0.00 | 0.00 | 86 | 1016.1 |
| 20260905031616 | 66 | 44 | 0.0 | 5.0 | 0.00 | 0.00 | 0.00 | 85 | 1016.1 |
| 20260905030110 | 67 | 9 | 1.0 | 6.0 | 0.00 | 0.00 | 0.00 | 84 | 1016.0 |
| 20260905024612 | 68 | 35 | 2.0 | 5.0 | 0.00 | 0.00 | 0.00 | 83 | 1016.0 |
| 20260905023109 | 69 | 38 | 2.0 | 4.0 | 0.00 | 0.00 | 0.00 | 81 | 1015.6 |
| 20260905021615 | 71 | 42 | 2.0 | 6.0 | 0.00 | 0.00 | 0.00 | 80 | 1015.6 |
| 20260905020104 | 72 | 36 | 1.0 | 5.0 | 0.00 | 0.00 | 0.00 | 79 | 1015.4 |
| 20260905014605 | 74 | 46 | 1.0 | 5.0 | 0.00 | 0.00 | 0.00 | 78 | 1015.3 |
| 20260905013121 | 75 | 44 | 2.0 | 5.0 | 0.00 | 0.00 | 0.00 | 77 | 1015.1 |
| 20260905011624 | 76 | 0 | 1.0 | 3.0 | 0.00 | 0.00 | 0.00 | 75 | 1014.7 |
| 20260905010106 | 78 | 0 | 0.0 | 2.0 | 0.00 | 0.00 | 0.00 | 74 | 1014.6 |
| 20260905004607 | 79 | 0 | 1.0 | 4.0 | 0.00 | 0.00 | 0.00 | 72 | 1014.5 |
| 20260905003102 | 80 | 43 | 1.0 | 3.0 | 0.00 | 0.00 | 0.00 | 71 | 1014.5 |
| 20260905001607 | 81 | 41 | 1.0 | 3.0 | 0.00 | 0.00 | 0.00 | 70 | 1014.4 |
| 20260905000109 | 81 | 5 | 1.0 | 3.0 | 0.00 | 0.00 | 0.00 | 68 | 1014.3 |
| 20260904234607 | 82 | 44 | 1.0 | 4.0 | 0.00 | 0.00 | 0.00 | 67 | 1014.3 |
| 20260904233109 | 83 | 5 | 2.0 | 6.0 | 0.00 | 0.00 | 0.00 | 66 | 1014.3 |
| 20260904231606 | 84 | 46 | 2.0 | 5.0 | 0.00 | 0.00 | 0.00 | 64 | 1014.2 |
| 20260904230112 | 85 | 42 | 1.0 | 5.0 | 0.00 | 0.00 | 0.00 | 63 | 1013.9 |
| 20260904224622 | 85 | 44 | 2.0 | 6.0 | 0.00 | 0.00 | 0.00 | 62 | 1014.0 |
| 20260904223111 | 86 | 50 | 2.0 | 5.0 | 0.00 | 0.00 | 0.00 | 62 | 1013.7 |
| 20260904221628 | 86 | 42 | 2.0 | 6.0 | 0.00 | 0.00 | 0.00 | 62 | 1013.8 |
| 20260904220108 | 87 | 9 | 2.0 | 5.0 | 0.00 | 0.00 | 0.00 | 62 | 1013.7 |
| 20260904214607 | 86 | 0 | 0.0 | 5.0 | 0.00 | 0.00 | 0.00 | 63 | 1013.7 |
| 20260904213102 | 86 | 355 | 2.0 | 5.0 | 0.00 | 0.00 | 0.00 | 63 | 1013.7 |
| 20260904211559 | 86 | 355 | 2.0 | 6.0 | 0.00 | 0.00 | 0.00 | 63 | 1013.6 |
| 20260904210116 | 86 | 39 | 2.0 | 9.0 | 0.00 | 0.00 | 0.00 | 63 | 1013.5 |
| 20260904204609 | 85 | 21 | 2.0 | 9.0 | 0.00 | 0.00 | 0.00 | 64 | 1013.6 |
| 20260904203102 | 85 | 5 | 2.0 | 7.0 | 0.00 | 0.00 | 0.00 | 64 | 1013.8 |
| 20260904201628 | 84 | 38 | 1.0 | 5.0 | 0.00 | 0.00 | 0.00 | 66 | 1013.7 |
| 20260904200123 | 83 | 38 | 2.0 | 5.0 | 0.00 | 0.00 | 0.00 | 67 | 1013.7 |
| 20260904194606 | 82 | 0 | 2.0 | 6.0 | 0.00 | 0.00 | 0.00 | 70 | 1013.8 |
| 20260904193101 | 81 | 360 | 2.0 | 5.0 | 0.00 | 0.00 | 0.00 | 70 | 1014.0 |
| 20260904191600 | 80 | 352 | 2.0 | 5.0 | 0.00 | 0.00 | 0.00 | 72 | 1013.9 |
| 20260904190108 | 79 | 29 | 2.0 | 5.0 | 0.00 | 0.00 | 0.00 | 73 | 1013.9 |
| 20260904184607 | 78 | 40 | 2.0 | 4.0 | 0.00 | 0.00 | 0.00 | 75 | 1014.0 |
| 20260904183123 | 77 | 5 | 2.0 | 5.0 | 0.00 | 0.00 | 0.00 | 77 | 1014.2 |
| 20260904181607 | 76 | 5 | 1.0 | 6.0 | 0.00 | 0.00 | 0.00 | 78 | 1014.2 |
| 20260904180112 | 76 | 39 | 1.0 | 5.0 | 0.00 | 0.00 | 0.00 | 79 | 1014.1 |
| 20260904174608 | 75 | 22 | 2.0 | 8.0 | 0.00 | 0.00 | 0.00 | 81 | 1014.0 |
| 20260904173104 | 75 | 0 | 1.0 | 6.0 | 0.00 | 0.00 | 0.00 | 83 | 1013.8 |
| 20260904171623 | 74 | 355 | 2.0 | 6.0 | 0.00 | 0.00 | 0.00 | 84 | 1013.9 |
| 20260904170110 | 73 | 9 | 4.0 | 8.0 | 0.00 | 0.00 | 0.00 | 85 | 1014.1 |
| 20260904164607 | 73 | 346 | 2.0 | 7.0 | 0.00 | 0.00 | 0.00 | 87 | 1013.8 |
| 20260904163101 | 72 | 315 | 2.0 | 7.0 | 0.00 | 0.00 | 0.00 | 87 | 1013.8 |
| 20260904161613 | 72 | 26 | 4.0 | 8.0 | 0.00 | 0.00 | 0.00 | 89 | 1013.7 |
| 20260904160107 | 72 | 244 | 0.0 | 3.0 | 0.00 | 0.00 | 0.00 | 91 | 1013.4 |
| 20260904154610 | 71 | 0 | 1.0 | 3.0 | 0.00 | 0.00 | 0.00 | 92 | 1013.2 |
| 20260904153115 | 70 | 294 | 0.0 | 4.0 | 0.00 | 0.00 | 0.00 | 92 | 1013.1 |
| 20260904151609 | 70 | 0 | 0.0 | 4.0 | 0.00 | 0.00 | 0.00 | 93 | 1012.9 |
| 20260904150104 | 69 | 0 | 1.0 | 3.0 | 0.00 | 0.00 | 0.00 | 93 | 1012.8 |
| 20260904144614 | 69 | 0 | 0.0 | 2.0 | 0.00 | 0.00 | 0.00 | 93 | 1012.7 |
| 20260904143121 | 68 | 0 | 1.0 | 3.0 | 0.00 | 0.00 | 0.00 | 93 | 1012.8 |
| 20260904141604 | 68 | 0 | 0.0 | 3.0 | 0.00 | 0.00 | 0.00 | 93 | 1012.6 |
| 20260904140106 | 68 | 5 | 2.0 | 4.0 | 0.00 | 0.00 | 0.00 | 93 | 1012.4 |
| 20260904134604 | 67 | 278 | 1.0 | 4.0 | 0.00 | 0.00 | 0.00 | 93 | 1012.3 |
| 20260904133112 | 67 | 360 | 1.0 | 3.0 | 0.00 | 0.00 | 0.00 | 93 | 1012.2 |
| 20260904131605 | 67 | 11 | 0.0 | 1.0 | 0.00 | 0.00 | 0.00 | 92 | 1012.0 |
| 20260904130109 | 66 | 0 | 0.0 | 0.0 | 0.00 | 0.00 | 0.00 | 92 | 1011.9 |
| 20260904124602 | 66 | 0 | 0.0 | 2.0 | 0.00 | 0.00 | 0.00 | 92 | 1011.7 |
| 20260904123106 | 66 | 0 | 0.0 | 2.0 | 0.00 | 0.00 | 0.00 | 92 | 1011.6 |
| 20260904121607 | 66 | 0 | 0.0 | 1.0 | 0.00 | 0.00 | 0.00 | 91 | 1011.4 |
| 20260904120107 | 66 | 0 | 0.0 | 2.0 | 0.00 | 0.00 | 0.00 | 91 | 1011.3 |
| 20260904114607 | 66 | 44 | 1.0 | 3.0 | 0.00 | 0.00 | 0.00 | 91 | 1011.2 |
| 20260904113103 | 66 | 0 | 0.0 | 2.0 | 0.00 | 0.00 | 0.00 | 91 | 1011.3 |
| 20260904111610 | 66 | 0 | 0.0 | 2.0 | 0.00 | 0.00 | 0.00 | 90 | 1011.5 |
| 20260904110117 | 66 | 0 | 1.0 | 3.0 | 0.00 | 0.00 | 0.00 | 90 | 1011.2 |
| 20260904104607 | 66 | 24 | 0.0 | 4.0 | 0.00 | 0.00 | 0.00 | 90 | 1011.4 |
| 20260904103105 | 66 | 46 | 0.0 | 3.0 | 0.00 | 0.00 | 0.00 | 90 | 1011.2 |
| 20260904101603 | 66 | 44 | 1.0 | 3.0 | 0.00 | 0.00 | 0.00 | 90 | 1011.2 |
| 20260904100103 | 66 | 0 | 1.0 | 4.0 | 0.00 | 0.00 | 0.00 | 90 | 1010.7 |
| 20260904094604 | 66 | 0 | 0.0 | 3.0 | 0.00 | 0.00 | 0.00 | 90 | 1010.7 |
| 20260904093107 | 66 | 40 | 1.0 | 4.0 | 0.00 | 0.00 | 0.00 | 90 | 1010.6 |
| 20260904091605 | 66 | 45 | 1.0 | 4.0 | 0.00 | 0.00 | 0.00 | 89 | 1010.6 |
| 20260904090119 | 66 | 68 | 1.0 | 4.0 | 0.00 | 0.00 | 0.00 | 89 | 1010.5 |
| 20260904084605 | 67 | 35 | 2.0 | 6.0 | 0.00 | 0.00 | 0.00 | 88 | 1010.3 |
| 20260904083104 | 68 | 36 | 2.0 | 7.0 | 0.00 | 0.00 | 0.00 | 88 | 1010.4 |
| 20260904081617 | 69 | 51 | 4.0 | 8.0 | 0.00 | 0.00 | 0.00 | 88 | 1010.3 |
| 20260904080120 | 70 | 30 | 2.0 | 5.0 | 0.00 | 0.00 | 0.00 | 88 | 1010.2 |
| 20260904074619 | 72 | 360 | 4.0 | 8.0 | 0.00 | 0.00 | 0.00 | 90 | 1010.3 |
| 20260904073122 | 72 | 5 | 3.0 | 6.0 | 0.00 | 0.00 | 0.00 | 89 | 1010.3 |
| 20260904071605 | 72 | 0 | 0.0 | 2.0 | 0.00 | 0.00 | 0.00 | 89 | 1009.4 |
| 20260904070123 | 73 | 81 | 0.0 | 1.0 | 0.00 | 0.00 | 0.00 | 88 | 1009.4 |
| 20260904064611 | 73 | 0 | 0.0 | 2.0 | 0.00 | 0.00 | 0.00 | 88 | 1009.5 |
| 20260904063117 | 73 | 0 | 0.0 | 3.0 | 0.00 | 0.00 | 0.00 | 88 | 1009.6 |
| 20260904061604 | 73 | 94 | 0.0 | 2.0 | 0.00 | 0.00 | 0.00 | 87 | 1009.6 |
| 20260904060110 | 73 | 65 | 0.0 | 1.0 | 0.00 | 0.00 | 0.00 | 87 | 1009.6 |
| 20260904054604 | 74 | 0 | 0.0 | 2.0 | 0.00 | 0.00 | 0.00 | 86 | 1009.6 |
| 20260904053130 | 74 | 0 | 0.0 | 4.0 | 0.00 | 0.00 | 0.00 | 86 | 1009.6 |
| 20260904051608 | 74 | 0 | 0.0 | 4.0 | 0.00 | 0.00 | 0.00 | 85 | 1009.4 |
| 20260904050108 | 74 | 54 | 0.0 | 4.0 | 0.00 | 0.00 | 0.00 | 85 | 1009.2 |
| 20260904044614 | 75 | 0 | 2.0 | 5.0 | 0.00 | 0.00 | 0.00 | 83 | 1009.3 |